| time (UTC) | temp F | wind direction | speed knots | gust knots | rain 1hr in | rain 24hr in | rain mn in | humidity % | barometer mb |
| 20260502195926 | 56 | 66 | 0.0 | 0.0 | 0.00 | 0.00 | 0.00 | 68 | 1013.0 |
| 20260502194426 | 57 | 72 | 0.0 | 0.0 | 0.00 | 0.00 | 0.00 | 66 | 1012.9 |
| 20260502192926 | 62 | 72 | 0.0 | 0.0 | 0.00 | 0.00 | 0.00 | 54 | 1013.0 |
| 20260502191426 | 64 | 81 | 0.0 | 0.0 | 0.00 | 0.00 | 0.00 | 47 | 1012.9 |
| 20260502185926 | 65 | 87 | 0.0 | 1.7 | 0.00 | 0.00 | 0.00 | 46 | 1013.0 |
| 20260502184426 | 66 | 81 | 0.0 | 1.7 | 0.00 | 0.00 | 0.00 | 44 | 1012.9 |
| 20260502182926 | 68 | 101 | 0.9 | 3.5 | 0.00 | 0.00 | 0.00 | 42 | 1012.9 |
| 20260502181426 | 69 | 134 | 0.9 | 2.6 | 0.00 | 0.00 | 0.00 | 41 | 1012.9 |
| 20260502162925 | 77 | 137 | 2.6 | 5.2 | 0.00 | 0.00 | 0.00 | 27 | 1013.4 |
| 20260502161425 | 77 | 144 | 2.6 | 6.1 | 0.00 | 0.00 | 0.00 | 27 | 1013.6 |
| 20260502151425 | 79 | 210 | 3.5 | 7.8 | 0.00 | 0.00 | 0.00 | 27 | 1014.6 |
| 20260502122922 | 78 | 246 | 3.5 | 9.6 | 0.00 | 0.00 | 0.00 | 29 | 1016.9 |
| 20260502121422 | 77 | 180 | 3.5 | 8.7 | 0.00 | 0.00 | 0.00 | 30 | 1017.2 |
| 20260502115922 | 77 | 84 | 3.5 | 6.1 | 0.00 | 0.00 | 0.00 | 29 | 1017.3 |
| 20260502114422 | 76 | 126 | 3.5 | 8.7 | 0.00 | 0.00 | 0.00 | 30 | 1017.6 |
| 20260502112922 | 77 | 192 | 3.5 | 7.8 | 0.00 | 0.00 | 0.00 | 30 | 1017.8 |
| 20260502111422 | 75 | 78 | 2.6 | 7.8 | 0.00 | 0.00 | 0.00 | 32 | 1018.0 |
| 20260502105922 | 76 | 186 | 4.3 | 7.8 | 0.00 | 0.00 | 0.00 | 31 | 1018.2 |
| 20260502104422 | 76 | 206 | 3.5 | 6.1 | 0.00 | 0.00 | 0.00 | 32 | 1018.4 |
| 20260502102922 | 75 | 205 | 2.6 | 7.8 | 0.00 | 0.00 | 0.00 | 33 | 1018.6 |
| 20260502101422 | 74 | 173 | 2.6 | 6.1 | 0.00 | 0.00 | 0.00 | 32 | 1018.7 |
| 20260502091421 | 74 | 246 | 2.6 | 5.2 | 0.00 | 0.00 | 0.00 | 35 | 1019.3 |
| 20260502071421 | 63 | 296 | 0.0 | 0.0 | 0.00 | 0.00 | 0.00 | 48 | 1020.4 |
| 20260502065921 | 62 | 283 | 0.0 | 0.0 | 0.00 | 0.00 | 0.00 | 50 | 1020.4 |
| 20260502064421 | 61 | 294 | 0.0 | 0.0 | 0.00 | 0.00 | 0.00 | 52 | 1020.4 |
| 20260502062921 | 59 | 210 | 0.0 | 0.0 | 0.00 | 0.00 | 0.00 | 52 | 1020.5 |
| 20260502061421 | 56 | 284 | 0.0 | 0.0 | 0.00 | 0.00 | 0.00 | 58 | 1020.6 |
| 20260502055921 | 53 | 312 | 0.0 | 0.0 | 0.00 | 0.00 | 0.00 | 60 | 1020.6 |
| 20260502054421 | 52 | 329 | 0.0 | 0.0 | 0.00 | 0.00 | 0.00 | 60 | 1020.7 |
| 20260502052921 | 49 | 311 | 0.0 | 0.0 | 0.00 | 0.00 | 0.00 | 69 | 1020.7 |
| 20260502051421 | 48 | 0 | 0.0 | 0.0 | 0.00 | 0.00 | 0.00 | 66 | 1020.7 |
| 20260502045920 | 47 | 57 | 0.0 | 0.0 | 0.00 | 0.00 | 0.00 | 73 | 1020.7 |
| 20260502044420 | 45 | 75 | 0.0 | 0.0 | 0.00 | 0.00 | 0.00 | 73 | 1020.8 |
| 20260502042920 | 42 | 54 | 0.0 | 0.0 | 0.00 | 0.00 | 0.00 | 81 | 1020.7 |
| 20260502041420 | 40 | 72 | 0.0 | 0.0 | 0.00 | 0.00 | 0.00 | 85 | 1020.7 |
| 20260502035920 | 38 | 66 | 0.0 | 0.0 | 0.00 | 0.00 | 0.00 | 90 | 1020.7 |
| 20260502034420 | 37 | 78 | 0.0 | 0.0 | 0.00 | 0.00 | 0.00 | 90 | 1020.7 |
| 20260502032920 | 37 | 24 | 0.0 | 0.0 | 0.00 | 0.00 | 0.00 | 91 | 1020.8 |
| 20260502031420 | 37 | 60 | 0.0 | 0.0 | 0.00 | 0.00 | 0.00 | 90 | 1020.7 |
| 20260502025920 | 38 | 60 | 0.0 | 0.0 | 0.00 | 0.00 | 0.00 | 90 | 1020.8 |
| 20260502024420 | 38 | 60 | 0.0 | 0.0 | 0.00 | 0.00 | 0.00 | 90 | 1020.9 |
| 20260502022920 | 38 | 54 | 0.0 | 0.0 | 0.00 | 0.00 | 0.00 | 89 | 1020.9 |
| 20260502021420 | 39 | 54 | 0.0 | 0.0 | 0.00 | 0.00 | 0.00 | 88 | 1020.9 |
| 20260502015920 | 39 | 54 | 0.0 | 0.0 | 0.00 | 0.00 | 0.00 | 88 | 1020.9 |
| 20260502014420 | 39 | 84 | 0.0 | 0.0 | 0.00 | 0.00 | 0.00 | 87 | 1020.9 |
| 20260502012920 | 40 | 36 | 0.0 | 0.0 | 0.00 | 0.00 | 0.00 | 86 | 1020.9 |
| 20260502011420 | 40 | 66 | 0.0 | 0.0 | 0.00 | 0.00 | 0.00 | 87 | 1021.0 |
| 20260502005920 | 41 | 66 | 0.0 | 0.0 | 0.00 | 0.00 | 0.00 | 85 | 1021.0 |
| 20260502004420 | 41 | 60 | 0.0 | 0.0 | 0.00 | 0.00 | 0.00 | 84 | 1021.1 |
| 20260502002919 | 42 | 102 | 0.0 | 0.0 | 0.00 | 0.00 | 0.00 | 83 | 1021.2 |
| 20260502001419 | 42 | 42 | 0.0 | 0.0 | 0.00 | 0.00 | 0.00 | 84 | 1021.2 |
| 20260501235919 | 43 | 72 | 0.0 | 0.0 | 0.00 | 0.00 | 0.00 | 83 | 1021.2 |
| 20260501234419 | 44 | 54 | 0.0 | 0.0 | 0.00 | 0.00 | 0.00 | 81 | 1021.1 |
| 20260501232919 | 44 | 42 | 0.0 | 0.0 | 0.00 | 0.00 | 0.00 | 81 | 1021.1 |
| 20260501231419 | 44 | 72 | 0.0 | 0.0 | 0.00 | 0.00 | 0.00 | 82 | 1021.2 |
| 20260501225919 | 44 | 54 | 0.0 | 0.0 | 0.00 | 0.00 | 0.00 | 81 | 1021.2 |
| 20260501224419 | 46 | 66 | 0.0 | 0.0 | 0.00 | 0.00 | 0.00 | 78 | 1021.2 |
| 20260501222919 | 46 | 48 | 0.0 | 0.0 | 0.00 | 0.00 | 0.00 | 78 | 1021.2 |
| 20260501221419 | 47 | 74 | 0.0 | 0.0 | 0.00 | 0.00 | 0.00 | 77 | 1021.2 |
| 20260501215919 | 47 | 78 | 0.0 | 0.0 | 0.00 | 0.00 | 0.00 | 77 | 1021.2 |
| 20260501214419 | 48 | 72 | 0.0 | 0.0 | 0.00 | 0.00 | 0.00 | 76 | 1021.2 |
| 20260501212915 | 49 | 60 | 0.0 | 0.0 | 0.00 | 0.00 | 0.00 | 77 | 1021.2 |
| 20260501211415 | 49 | 12 | 0.0 | 0.0 | 0.00 | 0.00 | 0.00 | 76 | 1021.2 |
| 20260501205915 | 50 | 60 | 0.0 | 0.0 | 0.00 | 0.00 | 0.00 | 74 | 1021.2 |
| 20260501204415 | 51 | 96 | 0.0 | 0.0 | 0.00 | 0.00 | 0.00 | 73 | 1021.1 |
| 20260501202915 | 52 | 66 | 0.0 | 0.0 | 0.00 | 0.00 | 0.00 | 72 | 1021.1 |
| 20260501201415 | 53 | 190 | 0.0 | 2.6 | 0.00 | 0.00 | 0.00 | 71 | 1021.0 |